User: anonymous   Login
Location: Caltech
(34.1382°N, 118.1253°W)
Time: 05:11:36
(UTC-07:00)
Language:

Cosmos 44 Rocket - Orbit

View from above orbital plane
View from above orbital plane
View from above satellite
View from above satellite

Ground track
Ground track

The orbit data is extracted from the following two-line orbital elements,

1   877U 64053B   17172.84489502 -.00000097 +00000-0 +47843-5 0  9996
2   877 065.0788 278.7452 0050626 115.2022 245.4338 14.59296219802204
Epoch (UTC): 21 June 2017 20:16:38
Eccentricity: 0.0050626
inclination: 65.0788°
perigee height: 659 km
apogee height: 731 km
right ascension of ascending node: 278.7452°
argument of perigee: 115.2022°
revolutions per day: 14.59296219
mean anomaly at epoch: 245.4338°
orbit number at epoch: 80220

The dashed part of the orbit path shows where the satellite is in the earth's shadow,  

DLR